Weather in Privodino

Russia / Arkhangel'skaya Oblast'     61°04′50″N   46°30′05″E
temp.,
°C
wind,
m/s
gust,
m/s
humid.,
%
clouds,
%
prec.,
mm/h
press.,
hPa
HPBL,
m
18 may, tue
tue1800:00+10ene119390 0.0 102016
03:00+9e11959 0.0 102111
06:00+13ese237788 0.0 1021250
09:00+18ese235518 0.0 1021815
12:00+21se334366 0.0 10201261
15:00+23se344083 0.0 10201412
18:00+21se3651100 0.0 1019401
21:00+15se387539 0.0 1019147
19 may, wed
wed1900:00+14sse31078100 0.0 1019207
03:00+13sse2981100 0.0 1020204
06:00+17sse396814 0.0 1019301
09:00+22sse4749100 0.0 1019714
12:00+25sse4639100 0.0 10181166
15:00+26sse453646 0.0 10181429
18:00+24sse474565 0.0 1017616
21:00+17sse397184 0.0 1017174
20 may, thu
thu2000:00+15sse310786 0.0 1017206
03:00+13sse210835 0.0 1017195
06:00+17sse39685 0.0 1017291
09:00+23sse47485 0.0 1016872
12:00+26sse57342 0.0 10151781
15:00+27sse57302 0.0 10142030
18:00+24sse5943100 0.0 10131117
21:00+17sse3126610 0.0 1013272
21 may, fri
fri2100:00+17sse314631 0.0 1012418
03:00+14sse311784 0.0 1012254
06:00+17sse49665 0.0 1012371
09:00+22s584999 0.0 10111107
12:00+25s6836100 0.0 10092813
15:00+24s4838100 0.0 10082647
18:00+15sw5137894 0.4 1010621
21:00+14s2584100 0.5 1009149
22 may, sat
sat2200:00+14s1494100 1.0 1008160
03:00+13wnw4894100 2.0 1009438
06:00+13nw3108025 0.0 1011627
09:00+17wnw57412 0.0 10131722
12:00+20w683379 0.0 10142888
15:00+20w582838 0.0 10152932
18:00+18w47375 0.0 10161944
21:00+12wsw2254100 0.0 101828